     2              OBSERVATION DATA    GPS                 RINEX VERSION / TYPE
teqc 2000Jul20 Karen Wendt 20030320 21:28:20UTC             PGM / RUN BY / DATE
                                                            COMMENT
L2: 1 -> 1; 150 -> 5; 250 -> 9                              COMMENT
L2: 1 -> 1; 150 -> 5; 250 -> 9                              COMMENT
L2: 1 -> 1; 150 -> 5; 250 -> 9                              COMMENT
L2: 1 -> 1; 150 -> 5; 250 -> 9                              COMMENT
L2: 1 -> 1; 150 -> 5; 250 -> 9                              COMMENT
L2: 1 -> 1; 150 -> 5; 250 -> 9                              COMMENT
L2: 1 -> 1; 150 -> 5; 250 -> 9                              COMMENT
L2: 1 -> 1; 150 -> 5; 250 -> 9                              COMMENT
L2: 1 -> 1; 150 -> 5; 250 -> 9                              COMMENT
L2: 1 -> 1; 150 -> 5; 250 -> 9                              COMMENT
L2: 1 -> 1; 150 -> 5; 250 -> 9                              COMMENT
L2: 1 -> 1; 150 -> 5; 250 -> 9                              COMMENT
L2: 1 -> 1; 150 -> 5; 250 -> 9                              COMMENT
L2: 1 -> 1; 150 -> 5; 250 -> 9                              COMMENT
Original Marker Name: carx Car_1942_USC&GS                  COMMENT
Campaign Name: USGS 2003                                    COMMENT
4-Character Station Name: CARX                              COMMENT
6-Character Antenna Code: DMRCHT                            COMMENT
Vertical Measurement Point: BCR                             COMMENT
Vertical Offset to Rinex Ref. Point: 0.0348                 COMMENT
Radial Measurement Point: ECF                               COMMENT
Radial Offset to Rinex Ref. Point: 0.1897                   COMMENT
Antenna Height from Field Measurement: 1.2020 m             COMMENT
Additional Antenna Identification Info.:                    COMMENT
Turborogue and Ashtech Choke Ring                           COMMENT
Original XYZ: -2620417.4678 -4460989.7183 3718433.2394      COMMENT
New XYZ position is based on association with SCEC monument COMMENT
E1F1N2L6+0011. Position of that monument is believed to be  COMMENT
valid to within 1 m horizontally; vertical accuracy         COMMENT
should be no worse than 3-times this value.                 COMMENT
                                                            COMMENT
Revised Rinex header created by UCSD GPS archive for        COMMENT
GSAC on 11-Jul-2003 (2003:192) 16:25:44 GMT                 COMMENT
For assistance contact dagnew@ucsd.edu                      COMMENT
or anderson@python.ucsd.edu                                 COMMENT
                                                            COMMENT
CAR 1942                                                    MARKER NAME
CHS US GEOLOGICAL SURVEY                                    OBSERVER / AGENCY
LP00108.707 ASHTECH Z-XII3 CD00                             REC # / TYPE / VERS
CR14330 DORNE-MARGOL. TYPE T                                ANT # / TYPE
 -2620434.7822 -4460966.9121  3718423.4542                  APPROX POSITION XYZ
        1.1521        0.0000        0.0000                  ANTENNA: DELTA H/E/N
     1     1     0                                          WAVELENGTH FACT L1/2
     5    C1    L1    L2    P1    P2                        # / TYPES OF OBSERV
    30                                                      INTERVAL
  2003     3    17    22    11    0.000000                  TIME OF FIRST OBS
  2003     3    17    22    57    0.000000                  TIME OF LAST OBS
                                                            END OF HEADER
 03  3 17 22 11  0.0000000  0  7G18G17G30G26G23G10G 6
  23157228.511     -228434.19249   -160702.25746  23157228.025    23157237.282
  21349139.969      -40078.16949    -28273.20247  21349139.049    21349147.774
  22869299.799      284378.07949    208001.53246  22869299.643    22869309.964
  22812100.970     -141024.30349   -101365.34046  22812100.831
  22812112.429     -153198.15149   -109646.00043
  23283151.851      298148.76149    203824.08945  23283149.991    23283161.660
  20399991.088       58401.13449     41459.82348  20399990.421    20399997.794
 03  3 17 22 11 30.0000000  0  7G18G17G30G26G23G10G 6
  23141327.063     -311992.03149   -225812.09246  23141327.023    23141336.723
  21346290.466      -55053.16649    -39942.03447  21346289.411    21346298.096
  22891564.676      401373.23049    299166.42546  22891563.220    22891573.569
  22802101.765     -193571.62149   -142311.19146  22802101.364
  22802113.138     -209769.94949    -18048.34146                  21797638.733
  23304985.015      412878.13049    293223.44745  23304982.566    23304993.933
  20404092.664       79956.66649     58256.31548  20404092.321    20404099.726
 03  3 17 22 12  0.0000000  0  8G18G17G30G29G15G23G10G 6
  23030454.687     -894626.91949   -679813.14746  23030454.839    23030464.894
  21248463.529     -569137.56849   -440527.28547  21248462.455    21248471.054
  22818844.303       19227.64849      1390.49346  22818843.453    22818853.801
                   -508242.35649   -394412.86343
                   -543368.50749   -409615.79243                  21691926.022
                   -765252.76849   -450892.04047  21691924.813    21691933.743
  23231844.724       28522.36649     -6274.70145  23231842.420    23231853.526
  20313261.039     -397367.51149   -313684.63048  20313260.572    20313267.973
 03  3 17 22 12 30.0000000  0  8G18G17G30G29G15G23G10G 6
  23011503.807     -994213.96149   -757413.29746  23011503.778    23011514.071
  21242550.676     -600210.13549   -464739.67947  21242549.619    21242558.110
  22838031.066      120056.96649     79958.64246  22838030.551    22838041.066
                   -539146.26149   -418489.05643
                   -615530.37549   -465845.56745  23096622.332    21678173.222
                   -837522.84149   -507206.31847  21678172.034    21678180.891
  23250621.725      127197.64149     70614.96345  23250619.890    23250630.888
  20314387.163     -391449.86549   -309073.49948  20314386.653    20314394.065
 03  3 17 22 13  0.0000000  0  8G18G17G30G29G15G23G10G 6
  22992597.225    -1093569.00849   -834832.68046  22992596.927    22992607.333
  21236674.832     -631088.42549   -488800.68147  21236673.757    21236682.136
  22857247.682      221042.65049    158648.63246  22857247.447    22857258.068
                   -569591.00349   -442204.90843
  23082905.846     -687551.02949   -521965.49446  23082904.478    23082916.874
  21664495.939     -909396.07249   -563211.37247  21664494.723    21664503.531
  23269439.337      226085.44649    147670.22245  23269437.664    23269448.692
  20315594.370     -385106.16949   -304130.38048  20315593.847    20315601.190
 03  3 17 22 13 30.0000000  0  8G18G17G30G29G15G23G10G 6
  22973735.167    -1192690.12849   -912069.80146  22973734.695    22973745.124
  21230835.754     -661773.12749   -512710.84047  21230834.659    21230843.071
  22876493.866      322181.43449    237457.89446  22876493.712    22876504.222
                   -599575.18149   -429454.84843
  23069227.971     -759430.97549   -577975.78346  23069226.507    23069238.342
  21650894.323     -980871.28149   -618906.28547  21650893.119    21650901.977
  23288296.783      325182.73949    224888.68345  23288295.288    23288306.459
  20316882.762     -378335.86849   -298854.84348  20316882.225    20316889.594
 03  3 17 22 14  0.0000000  0  8G18G17G30G29G15G23G10G 6
  22954917.934    -1291575.86449   -989123.50946  22954917.312    22954927.738
  21225033.310     -692264.72849   -536470.53547  21225032.266    21225040.793
  22895768.695      423469.49149    316383.47646  22895768.519    22895778.878
                   -629097.59349   -452442.48543
  23055576.338     -831170.32749   -633876.50046  23055575.087    23055586.530
  21637368.613    -1051947.67349   -674290.43947  21637367.582    21637376.512
  23307193.680      424485.83749    302267.54345  23307192.207    23307203.336
  20318252.411     -371138.59649   -293246.60148  20318251.837    20318259.278
 03  3 17 22 14 30.0000000  0  8G18G17G30G29G15G23G10G 6
  22936145.745    -1390223.90049  -1065991.99046  22936145.217    22936155.507
  21219267.628     -722563.55849   -560080.02147  21219266.617    21219275.195
  22915071.332      524904.51949    395423.56346  22915071.166    22915081.521
                   -658155.80249   -475071.51043
  23041951.823     -902768.71349   -689667.38246  23041950.499    23041961.664
  21623919.545    -1122623.29149   -729362.29647  21623918.582    21623927.486
  23326129.121      523992.74349    379805.19945  23326127.638    23326138.885
  20319703.505     -363513.06549   -287304.65548  20319702.932    20319710.440
 03  3 17 22 15  0.0000000  0  9G18G17G30G29G15G26G23G10G 6
  22917419.704    -1488630.98049  -1142672.69946  22917418.961    22917429.133
  21213538.842     -752668.46749   -583538.38947  21213537.873    21213546.433
  22934401.117      626484.66349    474576.75946  22934401.155    22934411.866
                   -686746.91549   -462479.18543
  23028354.233     -974225.13849   -745347.65446  23028352.903    23028364.002
                   -629623.19849   -477927.67745                  22620330.633
  21610547.481    -1192895.55149   -784119.85647  21610546.469    21610555.257
  23345103.166      623701.88549    457500.46145  23345101.662    23345112.940
  20321236.563     -355457.18249   -281027.37248  20321235.981    20321243.408
 03  3 17 22 15 30.0000000  0  7G18G17G30G26G23G10G 6
  22898739.970    -1586793.01049  -1219162.46046  22898739.154    22898749.187
  21207847.316     -782577.93949   -606844.46447  21207846.343    21207854.811
  22953758.562      728208.89249    553842.22546  22953758.583    22953769.586
  22607776.851     -695533.70649   -529286.43546  22607776.152    22607787.829
  21597252.656    -1262761.15849   -838560.52947  21597251.584    21597260.360
  23364115.431      723612.29249    535352.53845  23364114.130    23364125.478
  20322852.033     -346968.17549   -274412.59348  20322851.453    20322858.788
 03  3 17 22 16  0.0000000  0  7G18G17G30G26G23G10G 6
  22880106.546    -1684710.16649  -1295461.44946  22880105.822    22880115.748
  21202192.630     -812293.97149   -629999.82247  21202191.588    21202200.011
  22973143.000      830072.61749    633216.35646  22973142.873    22973153.818
  22595311.093     -761038.40249   -580328.96346  22595310.982    22595322.342
  21584034.802    -1332220.41849   -892684.58247  21584033.795    21584042.657
  23383165.414      823719.60249    613358.09145  23383164.121    23383175.508
  20324549.679     -338046.93849   -267461.02748  20324549.098    20324556.498
 03  3 17 22 16 30.0000000  0  7G18G17G30G26G23G10G 6
  22861520.260    -1782381.49749  -1371568.85346  22861519.649    22861529.340
  21196574.354     -841818.19249   -653005.70247  21196573.318    21196581.723
  22992553.229      932071.18649    712695.58046  22992552.906    22992563.620
  22582922.816     -826135.60549   -631053.96546  22582923.308    22582934.602
  21570894.248    -1401273.33549   -946491.99447  21570893.272    21570902.107
  23402252.110      924019.64449    691513.79846  23402250.758    23402262.311
  20326329.518     -328694.02149   -260173.06748  20326328.965    20326336.392
 03  3 17 22 17  0.0000000  0  7G18G17G30G26G23G10G 6
  22842981.957    -1879802.42849  -1447481.13646  22842981.233    22842990.582
  21190992.973     -871148.34949   -675860.37347  21190991.991    21191000.410
  23011988.888     1034204.48449    792279.77246  23011988.541    23011999.074
  22570614.327     -890819.19449   -681456.67946  22570614.478    22570625.635
  21557831.915    -1469915.68749   -999979.47947  21557830.944    21557839.674
  23421375.643     1024512.53249    769819.76546  23421374.318    23421385.741
  20328192.227     -318905.73149   -252545.86848  20328191.666    20328199.135
 03  3 17 22 17 30.0000000  0  7G18G17G30G26G23G10G 6
  22824491.489    -1976972.26449  -1523197.74546  22824490.574    22824499.725
  21185448.252     -900286.13249   -698565.14147  21185447.290    21185455.675
  23031449.126     1136468.26749    871965.64746  23031448.949    23031459.335
  22558384.856     -955087.50849   -731535.80046  22558384.675    22558395.770
  21544847.661    -1538147.58149  -1053147.12847  21544846.773    21544855.595
  23440534.993     1125194.13749    848272.76546  23440533.596    23440545.021
  20330137.543     -308682.81549   -244579.98748  20330136.989    20330144.511
 03  3 17 22 18  0.0000000  0  7G18G17G30G26G23G10G 6
  22806048.524    -2073888.69349  -1598716.93246  22806047.693    22806057.114
  21179940.310     -929231.25849   -721119.77947  21179939.313    21179947.574
  23050933.721     1238860.01749    951751.23046  23050933.660    23050943.850
  22546234.841    -1018936.77349   -781288.40646  22546234.606    22546245.736
  21531942.015    -1605967.21749  -1105993.54647  21531941.068    21531950.072
  23459729.783     1226062.39449    926871.21946  23459728.487    23459739.810
  20332165.863     -298023.87949   -236274.35748  20332165.345    20332172.870
 03  3 17 22 18 30.0000000  0  7G18G17G30G26G23G10G 6
  22787653.678    -2170551.34049  -1674038.37946  22787653.057    22787662.835
  21174468.584     -957985.33449   -743525.54547  21174467.591    21174475.854
  23070441.958     1341375.06949   1031632.88546  23070441.885    23070451.882
  22534164.836    -1082365.45849   -830713.29046  22534164.622    22534175.664
  21519114.588    -1673374.80649  -1158518.90047  21519113.678    21519122.981
  23478959.238     1327112.80849   1005611.60046  23478957.855    23478969.180
  20334277.093     -286929.76949   -227629.62648  20334276.563    20334284.102
 03  3 17 22 19  0.0000000  0  8G18G17G30G29G26G23G10G 6
  22769307.984    -2266957.57849  -1749160.01946  22769307.367    22769317.415
  21169033.137     -986548.82449   -765782.80547  21169032.144    21169040.422
  23089973.287     1444011.24149   1111608.92346  23089973.133    23089982.926
                   -710080.17149   -551793.93743
  22522175.660    -1145369.66549   -879807.41646  22522175.352    22522186.287
  21506365.993    -1740368.38649  -1210721.65947  21506365.123    21506374.651
  23498222.889     1428343.44949   1084492.40746  23498221.569    23498233.003
  20336471.346     -275399.13149   -218644.74548  20336470.814    20336478.414
 03  3 17 22 19 30.0000000  0  8G18G17G30G29G26G23G10G 6
  22751011.782    -2363104.87449  -1824079.89346  22751010.993    22751021.309
  21163634.124    -1014920.64549   -787890.72447  21163633.162    21163641.455
  23109527.100     1546766.14049   1191677.49946  23109526.907    23109536.670
                   -734389.18749   -570735.43445                  23063985.386
  22510267.815    -1207945.82549   -928567.99046  22510267.516    22510278.359
  21493696.765    -1806945.97349  -1262600.26047  21493695.904    21493705.465
  23517520.470     1529752.28349   1163512.06846  23517519.209    23517530.858
  20338748.999     -263430.54549   -209318.60448  20338748.447    20338756.000
 03  3 17 22 20  0.0000000  0  8G18G17G30G29G26G23G10G 6
  22732764.717    -2458993.26949  -1898798.02446  22732763.955    22732774.431
  21158271.153    -1043103.41849   -809851.33047  21158270.234    21158278.431
  23129102.508     1649634.68249   1271834.61846  23129102.395    23129112.280
  23059442.010     -758216.26349   -589302.03845  23059441.831    23059451.945
  22498441.734    -1270092.88949   -976994.23446  22498441.393    22498452.109
  21481106.629    -1873108.55049  -1314155.47247  21481105.739    21481115.117
  23536851.169     1631334.37549   1242666.73446  23536849.877    23536861.732
  20341109.654     -251025.43149   -199652.31648  20341109.093    20341116.638
 03  3 17 22 20 30.0000000  0  8G18G17G30G29G26G23G10G 6
  22714567.724    -2554619.27649  -1973311.68946  22714567.022    22714577.195
  21152944.534    -1071095.66749   -831663.46947  21152943.552    21152951.709
  23148699.355     1752615.67349   1352079.36046  23148699.169    23148709.298
  23055000.321     -781558.03449   -607490.40945  23054999.216    23055010.076
  22486698.143    -1331805.90349  -1025082.24446  22486697.753    22486708.356
  21468596.037    -1938853.03449  -1365384.88547  21468595.101    21468604.198
  23556214.604     1733088.83849   1321955.70346  23556213.292    23556225.168
  20343553.852     -238181.14349   -189643.81848  20343553.311    20343560.839
 03  3 17 22 21  0.0000000  0  9G18G17G30G16G29G26G23G10G 6
  22696421.660    -2649978.87249  -2047617.74246  22696420.874    22696430.591
  21147654.394    -1098895.84049   -853325.94047  21147653.394    21147661.554
  23168317.173     1855708.08149   1432410.91946  23168317.088    23168327.545
  23923958.548     -880276.00049   -679592.55445  23923955.230    23923967.408
  23050650.806     -804411.08449   -625297.96445  23050650.167    23050661.056
  22475037.951    -1393079.85249  -1072828.12946  22475037.635    22475048.322
  21456165.467    -2004176.20049  -1416286.00447  21456164.537    21456173.446
  23575610.695     1835015.06049   1401378.53846  23575609.405    23575621.281
  20346082.161     -224895.09349   -179291.09348  20346081.631    20346089.106
 03  3 17 22 21 30.0000000  0  9G18G17G30G16G29G26G23G10G 6
  22678326.587    -2745069.81349  -2121714.46646  22678325.752    22678335.085
  21142400.876    -1126503.57949   -874838.46048  21142399.841    21142408.038
  23187955.768     1958909.50549   1512827.42246  23187955.752    23187966.478
  23911856.497     -943861.87549   -729139.98445  23911857.006    23911867.278
  23046395.421     -826773.54849   -642723.24045  23046395.062    23046405.541
  22463462.003    -1453911.27949  -1120229.18646  22463461.739    22463472.603
  21443815.273    -2069076.47149  -1466857.59647  21443814.376    21443823.311
  23595038.988     1937111.02349   1480933.62746  23595037.734    23595049.670
  20348694.796     -211166.14749   -168593.24948  20348694.252    20348701.694
 03  3 17 22 22  0.0000000  0  9G18G17G30G16G29G26G23G10G 6
  22660282.357    -2839892.62849  -2195602.27546  22660281.523    22660290.651
  21137183.352    -1153921.64449   -896203.18848  21137182.333    21137190.631
  23207614.229     2062214.39349   1593324.55846  23207614.103    23207625.057
  23899841.922    -1006998.21849   -778337.14445  23899842.433    23899852.446
  23042233.586     -848646.28949   -659766.92445  23042233.154    23042243.563
  22451970.496    -1514299.47049  -1167284.86846  22451970.235    22451981.200
  21431545.364    -2133555.24649  -1517100.75447  21431544.480    21431553.480
  23614498.641     2039371.09649   1560616.57946  23614497.324    23614509.313
  20351391.289     -196996.15349   -157551.72448  20351390.725    20351398.288
 03  3 17 22 22 30.0000000  0  9G18G17G30G16G29G26G23G10G 6
  22642289.234    -2934446.41349  -2269280.45846  22642288.400    22642297.473
  21132001.547    -1181151.75549   -917421.46848  21132000.560    21132008.992
  23227291.572     2165618.82849   1673899.24346  23227291.431    23227302.624
  23887913.512    -1069684.09749   -827183.25545  23887913.392    23887923.581
  23038164.526     -870028.98149   -676428.75245  23038163.952    23038174.682
  22440563.448    -1574242.50949  -1213993.68846  22440563.272    22440574.322
  21419355.679    -2197612.25849  -1567015.27347  21419354.829    21419363.848
  23633988.828     2141791.71649   1640424.63646  23633987.490    23633999.620
  20354171.623     -182385.51649   -146166.84348  20354171.060    20354178.672
 03  3 17 22 23  0.0000000  0 10G18G17G30G16G29G15G26G23G10G 6
  22624347.940    -3028728.95449  -2342747.28246  22624347.050    22624356.085
  21126855.628    -1208193.71349   -938493.12948  21126854.653    21126863.086
  23246987.507     2269120.25849   1754549.53946  23246987.315    23246998.539
  23876070.903    -1131917.10749   -875676.48645  23876070.700    23876080.647
  23034188.659     -890919.74649   -692707.28345  23034188.134    23034199.263
                   -868586.82549   -670170.72643
  22429242.030    -1633736.88549  -1260352.90346  22429241.750    22429252.685
  21407246.613    -2261245.82449  -1616599.82747  21407245.742    21407254.717
  23653509.225     2244370.84749   1720356.22746  23653507.836    23653520.148
  20357036.144     -167333.03049   -134437.66248  20357035.557    20357043.116
 03  3 17 22 23 30.0000000  0 10G18G17G30G16G29G15G26G23G10G 6
  22606458.818    -3122737.14949  -2416000.33046  22606457.934    22606466.962
  21121745.833    -1235046.33249   -959417.25948  21121744.850    21121753.176
  23266701.593     2372716.80749   1835273.93446  23266701.336    23266712.479
  23864315.045    -1193694.51749   -923814.71445  23864314.739    23864324.639
  23030307.213     -911316.07649   -708600.51845  23030306.671    23030318.022
                   -937618.25549   -723961.82445                  22801353.590
  22418006.721    -1692778.70449  -1306359.49646  22418006.457    22418017.178
  21395218.483    -2324453.82849  -1665852.77747  21395217.599    21395226.460
  23673059.351     2347106.81949   1800410.04046  23673058.033    23673070.351
  20359985.060     -151837.05849   -122362.91548  20359984.426    20359991.991
 03  3 17 22 24  0.0000000  0 10G18G17G30G16G29G15G26G23G10G 6
  22588622.295    -3216469.21449  -2489038.21746  22588621.392    22588630.431
  21116671.892    -1261710.20049   -980194.30947  21116670.873    21116679.198
  23286433.222     2476405.43249   1916070.09746  23286432.907    23286443.944
  23852646.254    -1255014.47849   -971596.48645  23852645.847    23852655.933
  23026520.067     -931216.78249   -724107.58345  23026519.702    23026531.006
  22788235.426    -1006506.71249   -777641.05246  22788234.843    22788244.487
  22406858.333    -1751364.90249  -1352011.01146  22406857.975    22406868.346
  21383271.548    -2387235.00649  -1714773.12947  21383270.690    21383279.403
  23692638.807     2449996.74049   1880583.77146  23692637.527    23692649.919
  20363018.323     -135897.15949   -109942.24048  20363017.686    20363025.392
 03  3 17 22 24 30.0000000  0 10G18G17G30G16G29G15G26G23G10G 6
  22570838.527    -3309923.85849  -2561859.93146  22570837.674    22570846.680
  21111633.603    -1288185.95349  -1000824.78547  21111632.681    21111641.046
  23306181.489     2580182.82549   1996935.41846  23306181.096    23306192.289
  23841064.746    -1315875.50949  -1019020.65445  23841064.295    23841074.552
  23022827.897     -950620.73649   -739227.53945  23022827.458    23022838.576
  22775153.502    -1075252.51049   -831209.13546  22775152.650    22775162.775
  22395797.015    -1809492.72649  -1397305.38046  22395796.633    22395806.921
  21371406.085    -2449588.70049  -1763360.37847  21371405.164    21371413.813
  23712247.065     2553038.00149   1960875.43546  23712245.763    23712258.162
  20366136.034     -119513.00549    -97175.39348  20366135.438    20366143.222
 03  3 17 22 25  0.0000000  0 10G18G17G30G16G29G15G26G23G10G 6
  22553107.810    -3403099.81049  -2634464.47646  22553106.899    22553115.853
  21106631.219    -1314474.70649  -1021309.53648  21106630.224    21106638.550
  23325945.834     2684045.39349   2077867.10646  23325945.414    23325956.898
  23829570.928    -1376276.32749  -1066086.21045  23829570.232    23829580.619
  23019230.417     -969527.23749   -753959.86845  23019229.849    23019240.574
  22762098.483    -1143856.25149   -884666.53846  22762097.598    22762108.169
  22384823.117    -1867160.15349  -1442240.97546  22384822.799    22384833.171
  21359621.905    -2511514.55549  -1811614.25547  21359621.012    21359629.811
  23731883.432     2656227.35649   2041282.51146  23731882.180    23731894.601
  20369338.442     -102684.47449    -84062.29048  20369337.851    20369345.545
 03  3 17 22 25 30.0000000  0 10G18G17G30G16G29G15G26G23G10G 6
  22535430.395    -3495994.08849  -2706849.54446  22535429.478    22535438.505
  21101664.593    -1340575.31249  -1041647.68048  21101663.552    21101671.860
  23345726.087     2787991.32749   2158863.72146  23345725.660    23345737.324
  23818165.014    -1436213.98049  -1112790.86945  23818163.950    23818174.665
  23015727.710     -987933.77949   -768302.63445  23015727.133    23015737.749
  22749070.608    -1212316.86949   -938012.42046  22749069.837    22749080.645
  22373937.747    -1924362.67349  -1486814.31046  22373937.446    22373947.974
  21347919.630    -2573010.22249  -1859532.92047  21347918.753    21347927.728
  23751547.664     2759563.15949   2121803.67245  23751546.436    23751558.854
  20372625.787      -85410.03249    -70601.72348  20372625.165    20372632.804
 03  3 17 22 26  0.0000000  0 10G18G17G30G16G29G15G26G23G10G 6
  22517806.731    -3588604.36449  -2779013.32346  22517806.018    22517815.027
  21096733.590    -1366487.81149  -1061839.24548  21096732.546    21096740.870
  23365521.986     2892018.18549   2239923.41946  23365521.565    23365533.074
  23806847.673    -1495686.13349  -1159132.77845  23806846.602    23806857.392
  23012320.533    -1005838.72049   -782254.50645  23012320.053    23012330.483
  22736070.285    -1280633.78549   -991246.31946  22736069.516    22736080.351
  22363141.489    -1981097.29549  -1531023.05446  22363141.269    22363151.655
  21336299.597    -2634074.29649  -1907115.28547  21336298.698    21336307.702
  23771239.567     2863043.42549   2202437.42745  23771238.244    23771250.689
  20375998.058      -67688.56249    -56792.81948  20375997.450    20376005.200
 03  3 17 22 26 30.0000000  0 10G18G17G30G16G29G15G26G23G10G 6
  22500237.705    -3680929.13049  -2850954.62546  22500237.011    22500245.768
  21091838.257    -1392212.64049  -1081884.57847  21091837.245    21091845.567
  23385332.638     2996122.81449   2321043.67446  23385332.241    23385343.506
  23795619.296    -1554691.16049  -1205110.71245  23795618.266    23795629.126
  23009009.125    -1023240.69449   -795814.47545  23009008.644    23009018.941
  22723097.598    -1348807.14349  -1044368.36146  22723096.697    22723107.475
  22352435.034    -2037361.11749  -1574864.93346  22352434.632    22352445.042
  21324761.817    -2694705.83449  -1954360.60247  21324760.865    21324769.860
  23790958.156     2966665.24449   2283181.48645  23790956.833    23790969.538
  20379455.470      -49519.71449    -42635.31148  20379454.887    20379462.691
 03  3 17 22 27  0.0000000  0 10G18G17G30G16G29G15G26G23G10G 6
  22482723.595    -3772966.15249  -2922671.70146  22482722.865    22482731.213
  21086978.828    -1417749.45149  -1101783.41047  21086977.829    21086986.072
  23405157.547     3100302.84149   2402222.68946  23405157.227    23405168.365
  23784480.318    -1613226.95449  -1250723.00545  23784479.388    23784489.768
  23005793.704    -1040138.01749   -808981.20846  23005793.271    23005803.500
  22710152.394    -1416836.40249  -1097378.10946  22710151.429    22710162.115
  22341818.396    -2093150.73649  -1618337.30646  22341818.161    22341828.760
  21313306.572    -2754903.30249  -2001267.68847  21313305.635    21313314.571
  23810703.212     3070426.40149   2364034.12945  23810701.993    23810714.861
  20382998.260      -30902.56649    -28128.48848  20382997.694    20383005.444
 03  3 17 22 27 30.0000000  0 10G18G17G30G16G29G15G26G23G10G 6
  22465264.623    -3864713.89949  -2994163.37146  22465263.802    22465271.931
  21082154.974    -1443099.18749  -1121536.46147  21082153.948    21082162.178
  23424996.035     3204554.68949   2483457.68346  23424995.831    23425007.119
  23773431.245    -1671292.08649  -1295968.54845  23773430.116    23773440.309
  23002674.518    -1056530.24049   -821754.33546  23002673.980    23002684.290
  22697234.435    -1484722.26949  -1150276.13046  22697233.452    22697243.892
  22331292.391    -2148463.70749  -1661438.26146  22331292.348    22331303.169
  21301934.106    -2814666.42749  -2047836.32147  21301933.128    21301941.989
  23830474.552     3174323.45949   2444992.65745  23830473.236    23830486.095
  20386626.417      -11837.12049    -13272.34848  20386625.832    20386633.480
 03  3 17 22 28  0.0000000  0 10G18G17G30G16G29G15G26G23G10G 6
  22447861.046    -3956170.82749  -3065428.43446  22447860.199    22447868.513
  21077366.592    -1468262.29649  -1141144.08947  21077365.583    21077373.845
  23444847.864     3308875.38549   2564746.34246  23444847.649    23444859.008
  23762471.825    -1728885.05649  -1340846.18845  23762470.913    23762480.853
  22999651.643    -1072416.07849   -834132.87845  22999651.053    22999661.310
  22684343.676    -1552464.82149  -1203062.47846  22684342.606    22684352.789
  22320857.986    -2203297.46249  -1704165.79946  22320857.851    22320868.714
  21290644.453    -2873994.21849  -2094065.73047  21290643.434    21290652.303
  23850271.126     3278354.13749   2526055.30745  23850269.812    23850282.797
  20390339.969        7677.07849      1933.47148  20390339.352    20390346.960
 03  3 17 22 28 30.0000000  0 10G18G17G30G16G29G15G26G23G10G 6
  22430513.317    -4047334.89749  -3136465.30346  22430512.389    22430521.093
  21072613.662    -1493239.06249  -1160606.51347  21072612.644    21072620.944
  23464712.397     3413262.15349   2646086.46046  23464712.057    23464723.474
  23751602.503    -1786003.95249  -1385354.42145  23751601.499    23751611.412
  22996725.181    -1087794.10649   -846115.71545  22996724.619    22996734.778
  22671479.991    -1620063.99449  -1255737.09546  22671478.862    22671488.904
  22310515.327    -2257648.94249  -1746517.51246  22310515.112    22310525.798
  21279437.811    -2932885.42049  -2139954.95047  21279436.832    21279445.731
  23870092.814     3382515.99849   2607220.19645  23870091.489    23870104.384
  20394138.953       27640.65949     17489.47648  20394138.352    20394145.943
 03  3 17 22 29  0.0000000  0 10G18G17G30G16G29G15G26G23G10G 6
  22413221.531    -4138204.47849  -3207272.70546  22413220.650    22413229.660
  21067896.273    -1518029.15349  -1179923.48047  21067895.259    21067903.551
  23484588.593     3517712.05249   2727475.77046  23484588.377    23484600.034
  23740823.612    -1842647.08249  -1429491.92544  23740822.591    23740832.532
  22993895.478    -1102663.36049   -857702.13045  22993894.958    22993905.184
  22658643.472    -1687519.76949  -1308299.99846  22658642.368    22658652.486
  22300265.046    -2311515.36649  -1788491.26846  22300264.688    22300275.216
  21268314.433    -2991339.12449  -2185503.26647  21268313.443    21268322.449
  23889939.027     3486806.37549   2688485.19145  23889937.679    23889950.258
  20398023.496       48053.96549     33395.91748  20398022.922    20398030.518
 03  3 17 22 29 30.0000000  0 10G18G17G30G16G29G15G26G23G10G 6
  22395986.273    -4228777.18749  -3277848.77546  22395985.302    22395994.517
  21063214.392    -1542632.51849  -1199094.93947  21063213.381    21063221.724
  23504476.417     3622222.81249   2808912.49146  23504476.200    23504487.974
  23730135.659    -1898812.10249  -1473256.87544  23730134.799    23730144.804
  22991163.183    -1117021.86749   -868890.56445  22991162.699    22991173.026
  22645834.349    -1754831.26649  -1360750.47546  22645833.285    22645843.630
  22290107.497    -2364893.28649  -1830084.37346  22290107.160    22290117.775
  21257274.534    -3049353.63649  -2230709.34847  21257273.566    21257282.675
  23909809.134     3591223.39249   2769848.82945  23909807.884    23909820.497
  20401993.910       68918.10349     49653.65148  20401993.314    20402000.938
 03  3 17 22 30  0.0000000  0 10G18G17G30G16G29G15G26G23G10G 6
  22378807.440    -4319051.81149  -3348192.56846  22378806.475    22378815.762
  21058567.892    -1567050.03349  -1218121.58747  21058566.907    21058575.261
  23524375.191     3726791.00149   2890393.95446  23524375.004    23524386.683
  23719538.998    -1954498.02449  -1516648.53945  23719538.016    23719547.820
  22988528.361    -1130869.12249   -879680.61045  22988527.833    22988538.015
  22633052.746    -1821998.98449  -1413088.91446  22633051.684    22633062.188
  22280043.560    -2417780.47149  -1871295.08546  22280043.117    22280053.708
  21246318.226    -3106928.84049  -2275573.11647  21246317.281    21246326.446
  23929702.867     3695763.93049   2851308.79945  23929701.542    23929714.014
  20406050.097       90233.03649     66262.65548  20406049.506    20406057.054
 03  3 17 22 30 30.0000000  0 10G18G17G30G16G29G15G26G23G10G 6
  22361685.585    -4409026.59449  -3418302.71046  22361684.559    22361693.819
  21053956.718    -1591281.94149  -1237003.60447  21053955.710    21053964.090
  23544284.456     3831413.71549   2971917.88546  23544284.330    23544295.737
  23709033.878    -2009703.22549  -1559665.57945  23709032.868    23709042.711
  22985990.961    -1144204.15349   -890071.51945  22985990.390    22986000.512
  22620298.624    -1889023.10049  -1465315.45246  22620297.494    22620307.882
  22270073.118    -2470174.04349  -1912121.16746  22270072.780    22270083.408
  21235445.727    -3164063.84749  -2320093.86747  21235444.827    21235453.937
  23949619.393     3800425.65949   2932863.18945  23949618.133    23949630.814
  20410192.113      111999.17649     83223.24248  20410191.519    20410199.002
 03  3 17 22 31  0.0000000  0 10G18G17G30G16G29G15G26G23G10G 6
  22344621.120    -4498699.12649  -3488177.33946  22344620.192    22344629.319
  21049380.871    -1615328.21449  -1255740.96947  21049379.868    21049388.307
  23564203.739     3936088.50149   3053482.39046  23564203.571    23564214.729
  23698620.526    -2064425.35249  -1602306.17445  23698619.617    23698629.443
  22983551.012    -1157025.21949   -900061.92945  22983550.470    22983560.677
  22607571.854    -1955903.05549  -1517429.64446  22607570.705    22607580.834
  22260197.478    -2522070.72549  -1952560.07946  22260197.206    22260207.743
  21224657.369    -3220757.13849  -2364270.41847  21224656.446    21224665.477
  23969558.783     3905206.39149   3014510.34645  23969557.500    23969570.236
  20414420.052      134217.47049    100536.16848  20414419.511    20414427.021
 03  3 17 22 31 30.0000000  0 10G18G17G30G16G29G15G26G23G10G 6
  22327614.642    -4588068.07049  -3557815.39546  22327613.695    22327622.614
  21044840.354    -1639189.07849  -1274333.87348  21044839.381    21044847.791
  23584132.233     4040812.20349   3135085.03746  23584132.114    23584143.231
  23688299.385    -2118663.06949  -1644569.31045  23688298.483    23688308.497
  22981209.063    -1169331.73449   -909651.40045  22981208.510    22981218.788
  22594872.290    -2022639.03949  -1569431.64946  22594871.147    22594881.140
  22250417.018    -2573468.31749  -1992610.08146  22250416.637    22250427.044
  21213953.099    -3277008.21849  -2408102.40647  21213952.206    21213961.196
  23989520.062     4010103.23949   3096247.96745  23989518.782    23989531.703
  20418734.186      156887.88849    118201.39448  20418733.605    20418741.147
 03  3 17 22 32  0.0000000  0 10G18G17G30G16G29G15G26G23G10G 6
  22310666.406    -4677131.54849  -3627215.40846  22310665.528    22310674.100
  21040335.183    -1662864.58349  -1292782.32848  21040334.200    21040342.614
  23604069.495     4145582.28149   3216723.79646  23604069.451    23604080.664
  23678070.745    -2172414.48249  -1686453.51845  23678069.833    23678080.322
  22978965.484    -1181121.99349   -918838.56345  22978964.984    22978975.132
  22582200.092    -2089230.80849  -1621321.28446  22582198.999    22582209.161
  22240731.903    -2624363.60849  -2032268.68146  22240731.482    22240741.900
  21203333.205    -3332816.03049  -2451588.97347  21203332.309    21203341.211
  24009502.825     4115114.03349   3178074.33245  24009501.677    24009514.741
  20423134.503      180011.27149    136219.58348  20423133.918    20423141.404
 03  3 17 22 32 30.0000000  0 10G18G17G30G16G29G15G26G23G10G 6
  22293776.740    -4765887.90349  -3696376.12946  22293775.870    22293784.144
  21035865.103    -1686355.07049  -1311086.61548  21035864.074    21035872.531
  23624014.984     4250395.36049   3298396.08546  23624014.974    23624026.464
  23667934.945    -2225678.35449  -1727957.81445  23667934.000    23667944.600
  22976820.306    -1192395.69749   -927623.24745  22976819.758    22976829.942
  22569555.394    -2155678.59249  -1673098.71846  22569554.333    22569564.659
  22231142.799    -2674754.08949  -2071533.93146  22231142.441    22231152.830
  21192797.784    -3388179.94649  -2494729.67147  21192796.882    21192805.762
  24029506.818     4220235.79449   3259987.18045  24029505.759    24029518.998
  20427621.025      203587.67849    154590.77848  20427620.393    20427627.828
 03  3 17 22 33  0.0000000  0 10G18G17G30G16G29G15G26G23G10G 6
  22276945.663    -4854335.97049  -3765296.61646  22276944.752    22276953.056
  21031430.065    -1709660.93049  -1329247.04448  21031429.085    21031437.610
  23643968.064     4355248.59749   3380099.64446  23643968.111    23643979.655
  23657892.316    -2278453.13549  -1769081.00445  23657891.283    23657901.826
  22974773.508    -1203151.63649   -936004.48445  22974772.946    22974783.342
  22556938.168    -2221982.62049  -1724764.12946  22556937.097    22556947.488
  22221650.193    -2724637.45249  -2110404.03146  22221649.892    22221660.269
  21182346.954    -3443099.21349  -2537523.88247  21182346.097    21182354.989
  24049531.546     4325466.03349   3341984.55845  24049530.397    24049543.899
  20432193.727      227617.33749    173315.16548  20432193.087    20432200.548
 03  3 17 22 33 30.0000000  0 10G18G17G30G16G29G15G26G23G10G 6
  22260173.461    -4942473.54649  -3833975.17146  22260172.514    22260181.183
  21027030.156    -1732782.41849  -1347263.81048  21027029.200    21027037.732
  23663928.328     4460139.44649   3461832.50645  23663928.313    23663939.773
  23647943.079    -2330736.96049  -1809821.65645  23647942.050    23647952.066
  22972825.336    -1213388.60749   -943981.33545  22972824.865    22972835.295
  22544348.493    -2288142.53449  -1776317.24346  22544347.403    22544357.718
  22212254.735    -2774010.54549  -2148876.51246  22212254.396    22212264.857
  21171981.058    -3497572.82149  -2579970.82847  21171980.153    21171988.952
  24069576.414     4430802.28549   3424064.50345  24069575.299    24069588.945
  20436852.680      252100.73149    192393.10148  20436852.082    20436859.641
 03  3 17 22 34  0.0000000  0 10G18G17G30G16G29G15G26G23G10G 6
  22243460.537    -5030298.84849  -3902410.40646  22243459.683    22243468.756
  21022665.407    -1755719.69649  -1365137.02748  21022664.452    21022672.947
  23683895.116     4565065.12849   3543592.51745  23683895.259    23683906.435
  23638087.396    -2382528.47349  -1850178.65845  23638086.544    23638096.599
  22970976.195    -1223105.69349   -951553.08745  22970975.635    22970986.066
  22531786.106    -2354158.30749  -1827758.02646  22531784.960    22531795.212
  22202956.987    -2822870.70549  -2186949.28646  22202956.653    22202967.046
  21161700.140    -3551599.74349  -2622069.70447  21161699.260    21161707.903
  24089641.258     4536242.39949   3506225.41045  24089640.079    24089653.688
  20441598.226      277038.37749    211825.00048  20441597.646    20441605.176
 03  3 17 22 34 30.0000000  0 10G18G17G30G16G29G15G26G23G10G 6
  22226807.678    -5117810.13449  -3970600.93847  22226806.871    22226815.935
  21018335.713    -1778472.74849  -1382866.68848  21018334.690    21018343.228
  23703868.136     4670022.71149   3625377.37745  23703868.134    23703879.162
  23628325.815    -2433825.81949  -1890150.62545  23628324.961    23628334.868
  22969226.262    -1232302.01349   -958719.01645  22969225.855    22969235.824
  22519250.825    -2420029.83149  -1879086.42146  22519249.778    22519260.055
  22193757.247    -2871215.12849  -2224620.21746  22193756.912    22193767.374
  21151504.489    -3605179.33149  -2663820.00247  21151503.548    21151511.981
  24109725.459     4641783.80449   3588465.25045  24109724.254    24109737.628
  20446430.225      302430.68449    231611.18048  20446429.631    20446437.218
 03  3 17 22 35  0.0000000  0 10G18G17G30G16G29G15G26G23G10G 6
  22210215.097    -5205006.05749  -4038545.71247  22210214.218    22210223.102
  21014040.872    -1801041.95849  -1400453.09548  21014039.923    21014048.440
  23723846.455     4775009.00449   3707184.60945  23723846.483    23723857.613
  23618658.519    -2484627.88449  -1929736.65645  23618657.613    23618667.589
  22967575.772    -1240976.76649   -965478.53045  22967575.258    22967585.140
  22506743.114    -2485757.43549  -1930302.66646  22506742.107    22506752.270
  22184655.854    -2919041.72949  -2261887.68146  22184655.603    22184666.182
  21141393.976    -3658311.22349  -2705221.43947  21141392.958    21141401.287
  24129828.599     4747424.06549   3670782.08645  24129827.287    24129840.685
  20451348.687      328277.49049    251751.52848  20451348.136    20451355.811
 03  3 17 22 35 30.0000000  0 10G18G17G30G16G29G15G26G23G10G 6
  22193682.823    -5291884.64249  -4106243.22647  22193681.893    22193690.649
  21009781.027    -1823427.59649  -1417896.46847  21009780.052    21009788.566
  23743829.568     4880021.55449   3789012.31245  23743829.689    23743841.256
  23609085.701    -2534932.98049  -1968935.41445  23609084.771    23609094.934
  22966024.438    -1249128.71449   -971830.69445  22966023.943    22966034.125
  22494263.138    -2551340.57349  -1981406.33146  22494262.137    22494272.035
  22175654.015    -2966347.45349  -2298749.24346  22175653.724    22175664.087
  21131368.656    -3710994.15249  -2746273.04547  21131367.659    21131376.041
  24149949.757     4853160.91449   3753174.20245  24149948.438    24149961.848
  20456353.872      354579.42949    272246.51348  20456353.311    20456360.979
 03  3 17 22 36  0.0000000  0 10G18G17G30G16G29G15G26G23G10G 6
  22177211.080    -5378444.32749  -4173692.24147  22177210.127    22177218.839
  21005556.076    -1845629.79349  -1435196.90247  21005555.097    21005563.607
  23763817.207     4985057.52949   3870858.26645  23763817.451    23763829.473
  23599607.833    -2584739.59449  -2007745.75045  23599606.902    23599617.002
  22964572.796    -1256757.10149   -977774.86545  22964572.318    22964582.658
  22481810.620    -2616779.37149  -2032397.51746  22481809.557    22481819.375
  22166751.612    -3013129.77049  -2335202.96746  22166751.337    22166761.629
  21121428.773    -3763227.53749  -2786974.35947  21121427.850    21121436.353
  24170088.948     4958991.82349   3835639.58745  24170087.697    24170101.095
  20461445.707      381336.71349    293096.30448  20461445.126    20461452.747
 03  3 17 22 36 30.0000000  0 10G18G17G30G16G29G15G26G23G10G 6
  22160800.147    -5464683.68349  -4240891.66447  22160799.179    22160807.891
  21001365.999    -1867648.88649  -1452354.65547  21001365.017    21001373.453
  23783809.119     5090113.84749   3952720.06145  23783809.121    23783821.559
  23590225.372    -2634046.35249  -2046166.61945  23590224.377    23590234.110
  22963220.984    -1263861.29549   -983310.57045  22963220.443    22963230.584
  22469385.346    -2682073.83249  -2083276.24746  22469384.389    22469394.220
  22157949.402    -3059386.21849  -2371246.92946  22157949.001    22157959.332
  21111574.699    -3815010.76949  -2827324.90148  21111573.821    21111582.357
  24190245.600     5064914.25949   3918176.30545  24190244.362    24190257.683
  20466624.073      408549.52049    314301.03248  20466623.501    20466631.208
 03  3 17 22 37  0.0000000  0 10G18G17G30G16G29G15G26G23G10G 6
  22144450.213    -5550600.99649  -4307840.15147  22144449.367    22144458.278
  20997210.685    -1889485.42049  -1469370.14447  20997209.744    20997218.119
  23803804.198     5195187.71649   4034595.54145  23803804.298    23803816.835
  23580938.191    -2682851.86849  -2084196.90445  23580937.177    23580946.631
  22961968.905    -1270440.50049   -988437.20845  22961968.340    22961978.597
  22456987.559    -2747224.18549  -2134042.71546  22456986.622    22456996.509
  22149247.578    -3105114.57349  -2406879.39646  22149247.146    22149257.497
  21101806.514    -3866343.07549  -2867324.06248  21101805.634    21101814.126
  24210419.120     5170925.54049   4000782.22845  24210417.866    24210431.193
  20471889.227      436218.09949    335860.91648  20471888.706    20471896.446
 03  3 17 22 37 30.0000000  0 10G18G17G30G16G29G15G26G23G10G 6
  22128162.126    -5636193.85549  -4374535.82847  22128161.373    22128170.467
  20993090.406    -1911138.29649  -1486242.52348  20993089.426    20993097.750
  23823802.384     5300276.91449   4116482.94645  23823802.454    23823814.995
  23571746.535    -2731153.98249  -2121834.89545  23571745.550    23571755.100
  22960817.041    -1276493.11849   -993153.52345  22960816.607    22960826.835
  22444617.241    -2812229.47549  -2184696.13646  22444616.336    22444626.458
  22140646.810    -3150311.33849  -2442097.62846  22140646.419    22140656.671
  21092124.333    -3917223.14049  -2906970.83148  21092123.417    21092131.920
  24230609.202     5277024.27649   4083456.30145  24230607.899    24230621.441
  20477241.358      464343.20449    357776.51548  20477240.811    20477248.527
 03  3 17 22 38  0.0000000  0 10G18G17G30G16G29G15G26G23G10G 6
  22111936.229    -5721461.06549  -4440977.74947  22111935.505    22111944.610
  20989004.901    -1932608.05049  -1502972.21447  20989003.885    20989012.192
  23843802.925     5405378.38249   4198379.93245  23843802.978    23843815.463
  23562651.008    -2778951.67449  -2159079.85245  23562650.066    23562659.521
  22959765.691    -1282018.68749   -997459.15845  22959765.225    22959775.488
  22432274.749    -2877089.96949  -2235236.71346  22432273.810    22432283.899
  22132147.694    -3194974.19949  -2476899.84046  22132147.343    22132157.523
  21082528.170    -3967650.60349  -2946264.91548  21082527.290    21082535.905
  24250815.430     5383207.45749   4166196.21945  24250814.130    24250827.490
  20482680.290      492924.83949    380047.85748  20482679.746    20482687.474
 03  3 17 22 38 30.0000000  0 10G18G17G30G16G29G15G26G23G10G 6
  22095772.777    -5806401.79449  -4507165.25647  22095771.975    22095780.868
  20984953.821    -1953895.87849  -1519560.14747  20984952.860    20984961.286
  23863805.049     5510488.84049   4280283.89345  23863804.961    23863817.625
  23553651.557    -2826244.06449  -2195931.07045  23553650.747    23553659.984
  22958814.521    -1287017.24749  -1001354.13445  22958813.944    22958824.290
  22419959.782    -2941806.44549  -2285665.08146  22419958.736    22419968.687
  22123750.521    -3239101.55249  -2511284.75246  22123750.196    22123760.452
  21073018.139    -4017625.52049  -2985206.37448  21073017.284    21073025.982
  24271037.077     5489472.22649   4248999.69945  24271035.832    24271049.217
  20488206.031      521962.69849    402674.71548  20488205.520    20488213.291
 03  3 17 22 39  0.0000000  0 10G18G17G30G16G29G15G26G23G10G 6
  22079671.851    -5891013.56849  -4573096.42747  22079671.052    22079679.650
  20980937.498    -1975001.55549  -1536006.14347  20980936.580    20980945.070
  23883808.182     5615605.92749   4362193.04145  23883807.944    23883821.037
  23544748.614    -2873029.17049  -2232386.98545  23544747.800    23544757.029
  22957963.682    -1291487.18849  -1004837.23145  22957963.113    22957973.548
  22407672.227    -3006378.09449  -2335980.57946  22407671.152    22407681.081
  22115455.818    -3282690.21149  -2545249.91246  22115455.499    22115466.010
  21063594.484    -4067146.57649  -3023794.18548  21063593.658    21063602.430
  24291273.852     5595816.95249   4331865.49445  24291272.602    24291286.085
  20493818.726      551457.60749    425657.72548  20493818.215    20493826.027
 03  3 17 22 39 30.0000000  0 10G18G17G30G16G29G15G26G23G10G 6
  22063633.743    -5975294.35149  -4638769.68947  22063632.935    22063641.368
  20976956.165    -1995923.94649  -1552309.31748  20976955.236    20976963.735
  23903811.740     5720727.77049   4444105.87045  23903811.756    23903825.391
  23535942.549    -2919304.95049  -2268446.01645  23535941.756    23535951.122
  22957213.960    -1295426.98249  -1007907.18545  22957213.431    22957223.772
  22395412.256    -3070804.23249  -2386182.72346  22395411.170    22395421.123
  22107264.160    -3325736.72849  -2578792.62846  22107263.969    22107274.526
  21054257.501    -4116212.46449  -3062027.31248  21054256.672    21054265.429
  24311525.561     5702239.93849   4414792.22245  24311524.472    24311537.901
  20499518.533      581410.27249    448997.43848  20499518.029    20499525.900
 03  3 17 22 40  0.0000000  0 10G18G17G30G16G29G15G26G23G10G 6
  22047658.687    -6059242.60249  -4704183.84447  22047657.895    22047666.429
  20973009.659    -2016663.44349  -1568469.96547  20973008.678    20973017.193
  23923815.829     5825851.03249   4526019.83845  23923815.957    23923829.942
  23527233.681    -2965070.43249  -2304107.41045  23527232.855    23527242.312
  22956565.419    -1298836.44849  -1010563.90945  22956564.771    22956574.960
  22383179.879    -3135084.89449  -2436271.52146  22383178.808    22383188.811
  22099176.320    -3368239.42349  -2611911.55946  22099176.109    22099186.475
  21045007.239    -4164822.97649  -3099905.60448  21045006.405    21045015.091
  24331791.674     5808738.59649   4497777.93645  24331790.652    24331804.045
  20505305.459      611820.50649    472693.70648  20505304.963    20505312.827
 03  3 17 22 40 30.0000000  0 10G18G17G30G16G29G15G26G23G10G 6
  22031747.035    -6142856.97249  -4769337.85847  22031746.310    22031755.195
  20969097.574    -2037221.02149  -1584488.86047  20969096.637    20969105.213
  23943819.866     5930972.58249   4607932.45145  23943820.058    23943834.163
  23518621.942    -3010324.67149  -2339370.40245  23518621.227    23518630.800
  22956017.518    -1301715.41949  -1012807.25045  22956016.861    22956027.093
  22370975.239    -3199220.53149  -2486247.31146  22370974.217    22370984.200
  22091192.238    -3410196.13649  -2644605.06546  22091191.986    22091202.298
  21035843.843    -4212977.78749  -3137428.80348  21035842.999    21035851.520
  24352071.639     5915310.08049   4580820.41945  24352070.672    24352084.326
  20511179.458      642688.05149    496746.31048  20511178.926    20511186.783
 03  3 17 22 41  0.0000000  0 10G18G17G30G16G29G15G26G23G10G 6
  22015899.406    -6226136.18749  -4834230.72047  22015898.730    22015907.799
  20965220.140    -2057596.75149  -1600366.06147  20965219.221    20965227.798
  23963823.189     6036089.90349   4689841.77445  23963823.380    23963837.759
  23510107.843    -3055066.09949  -2374233.82945  23510107.131    23510116.761
  22955570.526    -1304062.94149  -1014636.48345  22955570.060    22955580.606
  22358798.230    -3263211.12949  -2536110.07746  22358797.187    22358807.171
  22083312.289    -3451604.46849  -2676871.27746  22083312.141    22083322.468
  21026767.213    -4260676.22449  -3174596.38148  21026766.342    21026774.741
  24372365.070     6021952.07849   4663917.78845  24372364.102    24372377.904
  20517140.427      674013.14949    521155.44348  20517139.910    20517147.713
 03  3 17 22 41 30.0000000  0 10G18G17G30G16G29G15G26G23G10G 6
  22000116.160    -6309078.89649  -4898861.34647  22000115.456    22000124.359
  20961377.419    -2077790.79049  -1616101.68647  20961376.521    20961384.975
  23983824.772     6141199.89449   4771745.37145  23983825.054    23983839.961
  23501691.525    -3099293.80949  -2408696.96845  23501690.828    23501700.429
  22955224.854    -1305878.72849  -1016051.37745  22955224.508    22955235.102
  22346648.775    -3327056.82049  -2585859.91946  22346647.757    22346657.776
  22075537.401    -3492462.17949  -2708708.42546  22075537.233    22075547.552
  21017777.447    -4307918.04849  -3211408.15848  21017776.576    21017784.863
  24392671.543     6128661.97249   4747068.11645  24392670.526    24392684.466
  20523188.457      705795.70949    545921.02948  20523187.943    20523195.736
 03  3 17 22 42  0.0000000  0 10G18G17G30G16G29G15G26G23G10G 6
  21984397.395    -6391683.43549  -4963228.45747  21984396.569    21984405.178
  20957569.292    -2097803.21349  -1631695.77847  20957568.337    20957576.722
  24003824.193     6246299.71949   4853641.05245  24003824.747    24003840.039
  23493373.443    -3143006.70249  -2442758.94145  23493372.677    23493382.117
  22954980.857    -1307162.04049  -1017051.36445  22954980.417    22954990.945
  22334526.938    -3390757.46349  -2635496.75246  22334525.910    22334536.009
  22067867.654    -3532766.81249  -2740114.60246  22067867.493    22067877.751
  21008874.611    -4354702.72749  -3247863.72148  21008873.729    21008881.996
  24412990.725     6235437.66749   4830269.69945  24412989.649    24413003.716
  20529323.629      738035.85349    571043.18048  20529323.115    20529330.892
 03  3 17 22 42 30.0000000  0 10G18G17G30G16G29G15G26G23G10G 6
  21968742.955    -6473948.30749  -5027330.89147  21968742.086    21968750.597
  20953795.516    -2117634.61649  -1647148.83348  20953794.560    20953802.929
  24023821.741     6351386.78349   4935526.76445  24023822.313    24023837.716
  23485153.648    -3186203.47849  -2476418.73545  23485152.777    23485162.261
  22954838.128    -1307912.49049  -1017636.12545  22954837.617    22954848.099
  22322432.645    -3454313.08749  -2685020.56346  22322431.672    22322441.818
  22060303.687    -3572516.33449  -2771088.20646  22060303.440    22060313.624
  21000058.825    -4401029.90849  -3283962.79048  21000057.923    21000066.291
  24433321.524     6342276.52949   4913520.52645  24433320.463    24433334.488
  20535545.898      770733.60349    596521.90948  20535545.368    20535553.156
 03  3 17 22 43  0.0000000  0 10G18G17G30G16G29G15G26G23G10G 6
  21953153.023    -6555872.04449  -5091167.50847  21953152.279    21953160.882
  20950056.100    -2137285.14549  -1662460.94148  20950055.169    20950063.652
  24043816.609     6456458.01049   5017400.13045  24043817.041    24043832.405
  23477032.098    -3228882.79749  -2509675.31746  23477031.260    23477040.771
  22954796.676    -1308129.49049  -1017805.19745  22954796.136    22954806.648
  22310365.906    -3517723.67549  -2734431.35246  22310364.986    22310375.118
  22052845.673    -3611708.29249  -2801627.36146  22052845.413    22052855.696
  20991330.067    -4446899.13249  -3319705.01648  20991329.186    20991337.711
  24453663.922     6449176.40149   4996818.87445  24453663.002    24453677.261
  20541855.181      803889.07849    622357.30248  20541854.640    20541862.441
 03  3 17 22 43 30.0000000  0 10G18G17G30G16G29G15G26G23G10G 6
  21937628.320    -6637452.87049  -5154736.92947  21937627.607    21937636.443
  20946351.276    -2156753.92349  -1677631.42247  20946350.353    20946358.928
  24063807.830     6561511.38949   5099259.63845  24063808.411    24063823.756
  23469009.252    -3271043.16349  -2542527.51446  23469008.523    23469018.121
  22954857.044    -1307812.13249  -1017557.87845  22954856.614    22954866.859
  22298326.983    -3580988.87449  -2783728.87846  22298325.980    22298336.126
  22045494.080    -3650340.20249  -2831730.11246  22045493.902    22045504.150
  20982688.641    -4492309.42249  -3355089.64048  20982687.818    20982696.442
  24474017.715     6556135.69449   5080163.55345  24474016.561    24474030.694
  20548251.622      837502.67449    648549.66547  20548251.112    20548258.862
 03  3 17 22 44  0.0000000  0 10G18G17G30G16G29G15G26G23G10G 6
  21922169.262    -6718689.30749  -5218038.00047  21922168.589    21922177.558
  20942680.991    -2176041.76749  -1692660.91048  20942680.054    20942688.591
  24083795.441     6666543.95349   5181102.92145  24083796.014    24083811.127
  23461085.482    -3312683.52149  -2574974.52546  23461084.639    23461094.182
  22955019.104    -1306959.98949  -1016893.84645  22955018.682    22955029.086
  22286315.669    -3644108.61749  -2832913.04846  22286314.616    22286324.871
  22038249.769    -3688409.86449  -2861394.72746  22038249.567    22038259.657
  20974134.710    -4537260.59049  -3390116.49348  20974133.869    20974142.476
  24494382.313     6663151.65149   5163552.32845  24494381.383    24494395.495
  20554735.232      871574.17849    675098.83347  20554734.693    20554742.425
 03  3 17 22 44 30.0000000  0 10G18G17G30G16G29G15G26G23G10G 6
  21906776.256    -6799580.44649  -5281069.99947  21906775.575    21906784.284
  20939045.096    -2195148.73249  -1707549.45947  20939044.131    20939052.672
  24103778.511     6771552.72949   5262927.65245  24103778.910    24103794.115
  23453260.587    -3353803.23449  -2607015.83346  23453259.797    23453269.356
  22955282.978    -1305572.67949  -1015812.83746  22955282.649    22955293.295
  22274332.016    -3707083.12949  -2881984.04246  22274330.942    22274341.145
  22031112.875    -3725915.34749  -2890619.72546  22031112.568    22031122.588
  20965668.224    -4581752.32949  -3424785.34848  20965667.361    20965675.912
  24514757.378     6770221.68249   5246983.30245  24514756.368    24514770.561
  20561305.890      906103.39349    702004.66247  20561305.355    20561313.161
 03  3 17 22 45  0.0000000  0 10G18G17G30G16G29G15G26G23G10G 6
  21891449.521    -6880124.24649  -5343831.32847  21891448.805    21891457.137
  20935443.392    -2214075.36549  -1722297.48647  20935442.455    20935451.087
  24123756.429     6876535.17549   5344731.86645  24123756.740    24123771.992
  23445535.260    -3394400.68749  -2638650.19546  23445534.454    23445543.846
  22955648.993    -1303649.83649  -1014314.49945  22955648.615    22955659.360
  22262376.006    -3769912.10749  -2930941.64546  22262374.999    22262384.982
  22024083.637    -3762854.11349  -2919403.12446  22024083.305    22024093.408
  20957289.275    -4625784.07649  -3459095.76648  20957288.431    20957296.896
  24535142.301     6877343.85749   5330454.84445  24535141.105    24535155.737
  20567963.670      941090.63249    729267.40047  20567963.175    20567971.093
 03  3 17 22 45 30.0000000  0 10G18G17G30G16G29G15G26G23G10G 6
  21876188.868    -6960319.96549  -5406321.43847  21876188.090    21876196.415
  20931876.096    -2232821.91749  -1736905.19948  20931875.184    20931883.780
  24143728.688     6981487.76949   5426512.80945  24143728.953    24143744.108
  23437909.416    -3434475.32249  -2669877.15545  23437908.544    23437917.850
  22956116.715    -1301191.46849  -1012398.89945  22956116.322    22956127.161
  22250447.753    -3832596.04649  -2979786.22446  22250446.706    22250456.454
  22017162.315    -3799224.71849  -2947743.79646  22017162.086    22017172.325
  20948997.848    -4669356.00449  -3493047.88648  20948996.961    20949005.443
  24555536.745     6984515.05049   5413964.62545  24555535.525    24555550.224
  20574708.603      976535.10049    756886.40747  20574708.136    20574715.954
 03  3 17 22 46  0.0000000  0 10G18G17G30G16G29G15G26G23G10G 6
  21860994.852    -7040164.55549  -5468537.95347  21860994.059    21861002.655
  20928343.241    -2251387.23449  -1751371.68648  20928342.320    20928350.908
  24163694.928     7086409.47049   5508269.67245  24163695.171    24163710.216
  23430383.450    -3474024.54849  -2700694.72845  23430382.644    23430391.678
  22956686.683    -1298195.86449  -1010064.65545  22956686.247    22956696.983
  22238547.249    -3895133.46849  -3028516.61946  22238546.165    22238555.971
  22010350.021    -3835023.46749  -2975638.85646  22010349.792    22010359.959
  20940794.207    -4712466.36249  -3526640.34548  20940793.311    20940801.836
  24575940.357     7091734.75149   5497512.20145  24575939.141    24575954.097
  20581540.911     1012438.21849    784862.80347  20581540.436    20581548.068
 03  3 17 22 46 30.0000000  0 10G18G17G30G16G29G15G26G23G10G 6
  21845867.754    -7119656.87049  -5530479.97647  21845867.021    21845875.790
  20924844.819    -2269771.53549  -1765697.12248  20924843.912    20924852.434
  24183654.701     7191297.14149   5590000.02145  24183654.883    24183669.853
  23422957.726    -3513047.47449  -2731102.19545  23422956.825    23422965.697
  22957359.128    -1294662.83149  -1007311.63045  22957358.711    22957369.123
  22226674.427    -3957524.51549  -3077132.98546  22226673.464    22226683.440
  22003646.902    -3870248.70049  -3003087.02246  22003646.643    22003656.546
  20932678.298    -4755115.02449  -3559873.04748  20932677.429    20932685.961
  24596352.622     7199000.58449   5581095.72445  24596351.450    24596366.428
  20588460.365     1048799.66949    813196.35947  20588459.826    20588467.475
 03  3 17 22 47  0.0000000  0 10G18G17G30G16G29G15G26G23G10G 6
  21830808.024    -7198796.12749  -5592146.86547  21830807.227    21830815.890
  20921380.752    -2287975.44549  -1779881.99847  20921379.870    20921388.284
  24203607.732     7296147.47249   5671701.26445  24203607.799    24203622.511
  23415631.891    -3551543.89749  -2761099.38945  23415631.017    23415639.810
  22958133.915    -1290592.55149  -1004139.98945  22958133.415    22958143.555
  22214829.577    -4019769.55749  -3125635.56746  22214828.644    22214838.692
  21997053.195    -3904898.95649  -3030087.13346  21997052.907    21997062.637
  20924650.390    -4797302.25349  -3592746.17748  20924649.497    20924657.903
  24616772.955     7306309.21049   5664712.62745  24616771.823    24616786.839
  20595466.735     1085618.67149    841886.43947  20595466.245    20595473.963
 03  3 17 22 47 30.0000000  0 10G18G17G30G16G29G15G26G23G10G 6
  21815815.597    -7277581.05049  -5653537.65947  21815814.895    21815823.251
  20917950.994    -2305999.11749  -1793926.42647  20917950.094    20917958.512
  24223553.431     7400958.28349   5753371.72145  24223553.312    24223567.849
  23408406.578    -3589512.36749  -2790685.21145  23408405.678    23408414.483
  22959010.765    -1285984.35949  -1000549.20145  22959010.148    22959020.456
  22203012.747    -4081868.46049  -3174024.28546  22203011.755    22203021.598
  21990569.355    -3938971.73049  -3056637.27046  21990569.006    21990578.796
  20916710.435    -4839027.37849  -3625259.22848  20916709.493    20916717.856
  24637200.922     7413659.01649   5748361.58645  24637199.762    24637214.831
  20602560.335     1122895.55249    870933.30048  20602559.875    20602567.545
 03  3 17 22 48  0.0000000  0 10G18G17G30G16G29G15G26G23G10G 6
  21800891.284    -7356009.39649  -5714650.58847  21800890.567    21800898.577
  20914555.420    -2323842.58949  -1807830.43447  20914554.515    20914562.952
  24243490.752     7505726.68149   5835009.14745  24243490.610    24243505.059
  23401281.919    -3626952.06349  -2819858.99245  23401281.061    23401289.813
  22959989.736    -1280838.04049   -996539.09745  22959989.220    22959999.843
  22191223.561    -4143821.10049  -3222299.03546  22191222.566    22191232.242
  21984195.731    -3972464.98149  -3082735.84746  21984195.408    21984205.148
  20908858.329    -4880290.13349  -3657411.99748  20908857.409    20908865.834
  24657636.523     7521047.96849   5832041.05745  24657635.345    24657650.357
  20609741.072     1160630.16949    900336.84048  20609740.603    20609748.339
 03  3 17 22 48 30.0000000  0 10G18G17G30G16G29G15G26G23G10G 6
  21786035.095    -7434080.23949  -5775484.94647  21786034.272    21786042.157
  20911194.331    -2341505.58149  -1821593.81147  20911193.412    20911201.829
  24263419.400     7610450.17149   5916611.57845  24263419.114    24263433.599
  23394257.974    -3663861.76549  -2848619.78645  23394257.193    23394266.049
  22961071.451    -1275153.15149   -992109.30946  22961071.011    22961081.768
  22179462.189    -4205627.45649  -3270459.77346  22179461.208    22179470.739
  21977932.800    -4005376.71049  -3108381.26646  21977932.494    21977942.196
  20901094.242    -4921090.21349  -3689204.24248  20901093.325    20901101.862
  24678079.235     7628473.76749   5915749.28545  24678077.951    24678092.828
  20617008.930     1198822.40549    930096.96748  20617008.422    20617016.300
 03  3 17 22 49  0.0000000  0 10G18G17G30G16G29G15G26G23G10G 6
  21771247.182    -7511791.48049  -5836039.11047  21771246.330    21771254.378
  20907867.626    -2358987.75749  -1835216.29647  20907866.675    20907875.095
  24283338.765     7715126.62349   5998177.37645  24283338.424    24283353.038
  23387335.075    -3700240.09749  -2876966.49745  23387334.436    23387343.449
  22962256.004    -1268928.84949   -987259.21046  22962255.561    22962266.187
  22167728.797    -4267286.74849  -3318505.92446  22167727.762    22167737.302
  21971780.887    -4037704.03349  -3133571.33446  21971780.663    21971790.514
  20893418.289    -4961426.69149  -3720635.24348  20893417.408    20893426.064
  24698528.584     7735934.88549   5999484.99345  24698527.504    24698542.087
  20624363.929     1237472.76449    960214.06647  20624363.360    20624371.294
 03  3 17 22 49 30.0000000  0 10G18G17G30G16G29G15G26G23G10G 6
  21756527.737    -7589142.12649  -5896312.29447  21756526.940    21756535.226
  20904575.111    -2376289.82749  -1848698.43647  20904574.175    20904582.661
  24303248.506     7819753.32349   6079704.38245  24303248.241    24303262.839
  23380513.443    -3736086.36849  -2904898.65545  23380512.708    23380522.001
  22963543.142    -1262165.08849   -981988.74246  22963542.671    22963553.191
  22156023.253    -4328799.09549  -3366437.59846  22156022.215    22156032.063
  21965740.632    -4069445.63849  -3158304.99946  21965740.385    21965750.356
  20885830.613    -5001299.74149  -3751705.13248  20885829.771    20885838.478
  24718984.495     7843428.93849   6083246.42645  24718983.273    24718997.579
  20631805.912     1276580.79749    990687.78747  20631805.368    20631813.318
 03  3 17 22 50  0.0000000  0  9G18G17G30G16G29G15G26G23G 6
  21741877.895    -7666127.52249  -5956300.87347  21741877.012    21741885.513
  20901317.578    -2393408.04249  -1862037.31247  20901316.660    20901325.204
  24323149.065     7924330.58249   6161192.84645  24323148.795    24323163.255
  23373794.025    -3771396.24649  -2932412.84145  23373793.339    23373802.744
  22964933.599    -1254858.32349   -976295.15946  22964933.067    22964943.482
  22144346.314    -4390161.06249  -3414252.08946  22144345.299    22144355.436
  21959812.968    -4100595.97149  -3182577.93846  21959812.678    21959822.634
  20878331.978    -5040705.65449  -3782411.02048  20878331.122    20878339.778
  20639335.654     1316149.83549   1021520.73347  20639335.135    20639343.088
 03  3 17 22 50 30.0000000  0  9G18G17G30G16G29G15G26G23G 6
  21727296.752    -7742750.95149  -6016007.40747  21727295.936    21727304.543
  20898094.116    -2410347.28449  -1875236.72947  20898093.221    20898101.759
  24343039.091     8028851.48649   6242637.42045  24343038.864    24343053.283
  23367176.011    -3806173.10749  -2959511.67645  23367175.382    23367185.253
  22966426.506    -1247012.91449   -970181.83746  22966426.014    22966436.349
  22132697.228    -4451377.13449  -3461952.87346  22132696.204    22132706.417
  21953997.222    -4131157.74249  -3206392.27246  21953996.954    21954006.878
  20870921.500    -5079648.64849  -3812756.18548  20870920.592    20870929.188
  20646952.377     1356175.25049   1052709.29647  20646951.842    20646959.739
 03  3 17 22 51  0.0000000  0  9G18G17G30G16G29G15G26G23G 6
  21712784.899    -7819011.04249  -6075430.81247  21712784.122    21712792.631
  20894904.905    -2427107.41149  -1888296.56948  20894903.959    20894912.400
  24362918.011     8133313.14249   6324035.79545  24362917.922    24362932.075
  23360659.432    -3840416.46549  -2986194.78445  23360658.843    23360669.159
  22968021.912    -1238628.85349   -963648.80346  22968021.489    22968031.720
  22121075.795    -4512447.48049  -3509540.09346  22121074.769    22121084.964
  21948293.775    -4161129.15449  -3229746.59246  21948293.502    21948303.397
  20863598.908    -5118128.82449  -3842740.72048  20863598.022    20863606.559
  20654655.676     1396656.51849   1084253.08447  20654655.130    20654663.188
 03  3 17 22 51 30.0000000  0  9G18G17G30G16G29G15G26G23G 6
  21698342.686    -7894905.98149  -6134569.66347  21698341.880    21698350.139
  20891749.673    -2443688.40249  -1901216.81948  20891748.743    20891757.159
  24382785.052     8237713.41149   6405386.32645  24382785.039    24382799.341
  23354244.739    -3874125.04749  -3012461.19845  23354244.183    23354254.680
  22969720.109    -1229705.55349   -956695.56846  22969719.604    22969729.676
  22109482.258    -4573371.48149  -3557013.29546  22109481.235    22109491.385
  21942703.126    -4190507.89149  -3252639.09946  21942702.823    21942712.689
  20856364.529    -5156145.53749  -3872364.10948  20856363.650    20856372.104
  20662445.743     1437593.95649   1116152.32747  20662445.247    20662453.426
 03  3 17 22 52  0.0000000  0  9G18G17G30G16G29G15G26G23G 6
  21683970.075    -7970434.65549  -6193423.12547  21683969.270    21683977.299
  20888628.527    -2460090.12949  -1913997.38448  20888627.594    20888636.062
  24402639.807     8342049.52749   6486686.88345  24402639.754    24402654.094
  23347932.158    -3907298.00849  -3038310.23445  23347931.533    23347942.064
  22971520.828    -1220242.95749   -949322.09846  22971520.338    22971530.321
  22097916.639    -4634149.16249  -3604372.49146  22097915.582    22097925.777
  21937225.601    -4219292.27649  -3275068.47746  21937225.345    21937235.134
  20849218.429    -5193698.71249  -3901626.30048  20849217.537    20849225.947
  20670322.758     1478987.19949   1148406.73547  20670322.253    20670330.282
 03  3 17 22 52 30.0000000  0  9G18G17G30G16G29G15G26G23G 6
  21669667.623    -8045594.63349  -6251989.28247  21669666.832    21669674.774
  20885541.608    -2476312.05049  -1926637.84248  20885540.691    20885549.174
  24422481.893     8446319.84049   6567936.14845  24422481.907    24422495.897
  23341721.853    -3939933.68149  -3063740.62246  23341721.363    23341731.760
  22973424.090    -1210239.73049   -941527.39446  22973423.710    22973433.878
  22086378.981    -4694779.43749  -3651616.82346  22086377.989    22086388.247
  21931861.754    -4247479.57349  -3297032.59646  21931861.528    21931871.255
  20842160.736    -5230787.10249  -3930526.32448  20842159.873    20842168.276
  20678286.625     1520836.92849   1181016.84747  20678286.130    20678293.976
 03  3 17 22 53  0.0000000  0  9G18G17G30G16G29G15G26G23G 6
  21655435.425    -8120385.00349  -6310267.44347  21655434.655    21655442.764
  20882488.942    -2492354.10949  -1939138.14948  20882488.024    20882496.488
  24442311.169     8550521.48949   6649131.91745  24442311.130    24442324.538
  23335613.927    -3972031.35149  -3088751.78246  23335613.401    23335623.826
  22975430.416    -1199696.37849   -933311.79646  22975430.030    22975440.263
  22074869.404    -4755262.43649  -3698746.39146  22074868.466    22074878.687
  21926611.867    -4275068.06949  -3318530.10447  21926611.583    21926621.365
  20835191.452    -5267410.98549  -3959064.38448  20835190.578    20835198.958
  20686337.210     1563142.50849   1213982.16347  20686336.687    20686344.504
 03  3 17 22 53 30.0000000  0  9G18G17G30G16G29G15G26G23G 6
  21641273.637    -8194804.95649  -6368256.97347  21641272.909    21641281.193
  20879470.297    -2508217.01749  -1951498.85448  20879469.414    20879477.867
  24462126.627     8654651.63649   6730271.96345  24462126.483    24462139.905
  23329608.661    -4003590.42349  -3113343.27146  23329608.138    23329618.376
  22977539.746    -1188612.99249   -924675.37746  22977539.310    22977549.346
  22063387.951    -4815598.24749  -3745761.25646  22063387.015    22063397.110
  21921476.028    -4302056.22049  -3339559.81447  21921475.828    21921485.737
  20828310.493    -5303570.44549  -3987240.55748  20828309.641    20828318.002
  20694474.321     1605903.44249   1247302.31447  20694473.844    20694481.775
 03  3 17 22 54  0.0000000  0  9G18G17G30G16G29G15G26G23G 6
  21627182.637    -8268853.14349  -6425956.81547  21627181.973    21627190.313
  20876485.721    -2523900.86949  -1963720.03248  20876484.860    20876493.261
  24481927.992     8758707.61149   6811354.23645  24481927.954    24481941.654
  23323705.919    -4034610.60649  -3137514.84546  23323705.414    23323715.415
  22979751.557    -1176989.67649   -915618.25246  22979751.090    22979761.147
  22051934.503    -4875786.92749  -3792661.47147  22051933.564    22051943.529
  21916454.907    -4328442.52149  -3360120.54347  21916454.694    21916464.599
  20821517.899    -5339265.50649  -4015054.86248  20821517.084    20821525.446
  20702698.013     1649119.44449   1280977.05847  20702697.571    20702705.588
 03  3 17 22 54 30.0000000  0  9G18G17G30G16G29G15G26G23G 6
  21613162.794    -8342527.95249  -6483365.70547  21613162.099    21613170.446
  20873535.256    -2539405.20949  -1975801.33147  20873534.413    20873542.797
  24501714.982     8862687.09149   6892376.89345  24501715.025    24501728.855
  23317905.943    -4065090.55049  -3161265.46246  23317905.449    23317915.301
  22982066.101    -1164826.10449   -906140.14546  22982065.727    22982075.790
  22040509.042    -4935828.03449  -3839446.69247  22040508.124    22040518.001
  21911548.686    -4354224.89649  -3380210.66847  21911548.481    21911558.348
  20814813.750    -5374495.83049  -4042507.03648  20814812.925    20814821.408
  20711008.390     1692790.44949   1315006.35347  20711007.927    20711016.002
 03  3 17 22 55  0.0000000  0  9G18G17G30G16G29G15G26G23G 6
  21599214.122    -8415828.06549  -6540482.63247  21599213.446    21599221.856
  20870619.203    -2554729.46349  -1987742.30547  20870618.302    20870626.632
  24521486.997     8966587.53949   6973337.90445  24521486.976    24521501.091
  23312208.947    -4095029.51349  -3184594.53545  23312208.364    23312218.145
  22984483.622    -1152122.14749   -896240.94746  22984483.223    22984493.255
  22029111.748    -4995721.29049  -3886116.69647  22029110.804    22029120.592
  21906757.716    -4379401.60449  -3399828.83447  21906757.487    21906767.349
  20808198.037    -5409261.23349  -4069596.93248  20808197.235    20808205.835
  20719405.214     1736916.18449   1349389.99147  20719404.725    20719412.953
 03  3 17 22 55 30.0000000  0  9G18G17G30G16G29G15G26G23G 6
  21585336.971    -8488752.37749  -6597306.71747  21585336.343    21585344.706
  20867737.251    -2569874.13249  -1999543.34847  20867736.357    20867744.698
  24541243.674     9070406.39249   7054235.37245  24541243.510    24541257.471
  23306614.939    -4124426.84049  -3207501.56245  23306614.286    23306624.022
  22987003.858    -1138877.65149   -885920.58246  22987003.450    22987013.547
  22017742.516    -5055466.63649  -3932671.45247  22017741.505    22017751.375
  21902082.288    -4403970.95849  -3418973.74147  21902082.084    21902091.946
  20801670.846    -5443561.67649  -4096324.52848  20801670.024    20801678.741
  20727888.490     1781496.26649   1384127.66247  20727888.052    20727896.380
 03  3 17 22 56  0.0000000  0  9G18G17G30G16G29G15G26G23G 6
  21571531.895    -8561298.94749  -6653836.44847  21571531.210    21571539.438
  20864889.471    -2584838.95149  -2011204.25047  20864888.588    20864897.049
  24560983.819     9174141.67849   7135067.73645  24560983.734    24560997.899
  23301124.217    -4153281.45549  -3229985.68545  23301123.518    23301133.143
  22989626.968    -1125092.40649   -875178.84846  22989626.623    22989636.817
  22006401.517    -5115063.41049  -3979110.45147  22006400.586    22006410.490
  21897522.864    -4427930.79649  -3437643.69447  21897522.661    21897532.548
  20795232.257    -5477396.51849  -4122689.31048  20795231.471    20795240.155
  20736458.353     1826530.93549   1419219.55847  20736457.899    20736466.255
 03  3 17 22 56 30.0000000  0  9G18G17G30G16G29G15G26G23G 6
  21557798.722    -8633466.79849  -6710071.08647  21557798.017    21557806.182
  20862075.976    -2599623.80549  -2022724.92048  20862075.106    20862083.672
  24580707.497     9277790.94549   7215833.09345  24580707.599    24580722.197
  23295736.742    -4181592.73649  -3252046.42746  23295736.117    23295745.777
  22992353.338    -1110766.57449   -864015.86246  22992352.935    22992362.985
  21995088.918    -5174511.55549  -4025433.63747  21995088.027    21995097.875
  21893079.744    -4451279.54649  -3455837.46147  21893079.517    21893089.387
  20788882.281    -5510766.00149  -4148691.47548  20788881.477    20788890.096
  20745114.669     1872019.74249   1454665.32747  20745114.216    20745122.529
